Tracking 19224 objects as of 23-Jul-2018
HD Live streaming from Space Station
objects crossing your sky now

PLEM COVER

Track PLEM COVER now!
10-day predictions


NORAD ID: 27611
Int'l Code: 2002-058G
Perigee: 521.3 km
Apogee: 575.5 km
Inclination: 64.5 °
Period: 95.5 minutes
Semi major axis: 6919 km
RCS: 3.6273 m2 (large)
Launch date: December 20, 2002
Source: Commonwealth of Independent States (former USSR) (CIS)
Launch site: TYURATAM MISSILE AND SPACE COMPLEX (TTMTR)

Note: This is SATELLITE DEBRIS
aabbcc
Your satellite tracking list
Your tracking list is empty




NASA's NSSDC Master Catalog

Two Line Element Set (TLE):
1 27611U 02058G   18203.51286960  .00000784  00000-0  61571-4 0  9996
2 27611  64.5385 224.0056 0039188 270.5627  89.1001 15.08341122847923
Source of the keplerian elements: AFSPC